Weather History for Americus, GA

Change the Weather History Date:

Wednesday, December 12, 2012

  Actual Average (KABY) Record (KABY)
Temperature  
Mean Temperature 44 °F 51 °F  
Max Temperature 46 °F 63 °F 82 °F (2007)
Min Temperature 41 °F 40 °F 18 °F (1957)
Degree Days  
Heating Degree Days 22 14  
Month to date heating degree days 153  
Since 1 July heating degree days 423  
Cooling Degree Days 0 0  
Month to date cooling degree days 0  
Year to date cooling degree days 2533  
Moisture  
Dew Point 42 °F    
Average Humidity 95    
Maximum Humidity 100    
Minimum Humidity 76    
Precipitation  
Precipitation 0.00 in - 0.41 in (2012)
Sea Level Pressure  
Sea Level Pressure 30.17 in    
Wind  
Wind Speed 6 mph (NNE)    
Max Wind Speed 13 mph    
Max Gust Speed 20 mph    
Visibility 6 miles    
Events Rain , Thunderstorm    
T = Trace of Precipitation, MM = Missing Value Source: NWS Daily Summary

Daily Weather History Graph

Daily Weather History Graph

Search for Another Location

Airport:

Trip Planner

Search our weather history database for the weather conditions in past years. The results will help you decide how hot, cold, wet, or windy it might be!

Date:

Astronomy

Dec. 12, 2012 Rise Set
Actual Time 7:28 AM EST 5:33 PM EST
Civil Twilight 7:01 AM EST 6:00 PM EST
Nautical Twilight 6:30 AM EST 6:30 PM EST
Astronomical Twilight 6:01 AM EST 7:00 PM EST
Moon 6:33 AM EST (12/12) 5:08 PM EST (12/12)
Length of Visible Light 10h 58m
Length of Day
10h 04m
Waning Crescent, 1% of the Moon is Illuminated
Dec 12
Waning Crescent
Dec 13
New
Dec 20
First Quarter
Dec 28
Full
Jan 4
Last Quarter

Hourly Weather History & Observations

Time (EST) Temp. Windchill Dew Point Humidity Pressure Visibility Wind Dir Wind Speed Gust Speed Precip Events Conditions
12:15 AM 42.8 °F 39.3 °F 35.6 °F 76% 30.16 in 10.0 mi North 5.8 mph - N/A   Clear
12:35 AM 42.8 °F 39.3 °F 35.6 °F 76% 30.16 in 10.0 mi North 5.8 mph - N/A   Clear
12:55 AM 42.8 °F 41.1 °F 35.6 °F 76% 30.16 in 10.0 mi North 3.5 mph - N/A   Clear
1:15 AM 42.8 °F 40.1 °F 35.6 °F 76% 30.16 in 10.0 mi NNE 4.6 mph - N/A   Clear
1:35 AM 42.8 °F 39.3 °F 35.6 °F 76% 30.17 in 10.0 mi North 5.8 mph - N/A   Mostly Cloudy
1:55 AM 42.8 °F - 35.6 °F 76% 30.18 in 10.0 mi Calm Calm - N/A Rain Light Rain
2:15 AM 42.8 °F 40.1 °F 37.4 °F 81% 30.16 in 10.0 mi NNE 4.6 mph - N/A Rain Light Rain
2:35 AM 41.0 °F 36.4 °F 37.4 °F 87% 30.14 in 7.0 mi NE 6.9 mph - N/A Rain Light Rain
2:55 AM 41.0 °F 35.8 °F 39.2 °F 93% 30.16 in 10.0 mi North 8.1 mph - N/A Rain Light Rain
3:15 AM 41.0 °F 35.8 °F 39.2 °F 93% 30.13 in 7.0 mi NE 8.1 mph - N/A Rain Light Rain
3:35 AM 41.0 °F 36.4 °F 39.2 °F 93% 30.12 in 7.0 mi North 6.9 mph - N/A Rain Light Rain
3:55 AM 41.0 °F 37.1 °F 39.2 °F 93% 30.13 in 7.0 mi NNE 5.8 mph - N/A   Overcast
4:15 AM 41.0 °F 37.1 °F 39.2 °F 93% 30.13 in 7.0 mi NNE 5.8 mph - N/A Rain Light Rain
4:35 AM 41.0 °F 36.4 °F 39.2 °F 93% 30.12 in 7.0 mi North 6.9 mph - N/A Rain Rain
4:55 AM 41.0 °F 36.4 °F 39.2 °F 93% 30.12 in 7.0 mi North 6.9 mph - N/A Rain Light Rain
5:15 AM 41.0 °F 36.4 °F 39.2 °F 93% 30.12 in 7.0 mi North 6.9 mph - N/A Rain Light Rain
5:35 AM 41.0 °F 36.4 °F 39.2 °F 93% 30.11 in 7.0 mi North 6.9 mph - N/A   Light Drizzle
5:55 AM 41.0 °F 38.0 °F 39.2 °F 93% 30.12 in 7.0 mi North 4.6 mph - N/A Rain Light Rain
6:15 AM 41.0 °F 39.0 °F 39.2 °F 93% 30.13 in 7.0 mi NE 3.5 mph - N/A Rain Light Rain
6:35 AM 41.0 °F 36.4 °F 39.2 °F 93% 30.13 in 7.0 mi NE 6.9 mph - N/A   Overcast
6:55 AM 41.0 °F 37.1 °F 39.2 °F 93% 30.15 in 7.0 mi NE 5.8 mph - N/A   Overcast
7:15 AM 41.0 °F 36.4 °F 39.2 °F 93% 30.16 in 7.0 mi NNE 6.9 mph - N/A   Overcast
7:35 AM 41.0 °F 36.4 °F 39.2 °F 93% 30.16 in 7.0 mi NNE 6.9 mph - N/A   Overcast
7:55 AM 41.0 °F 39.0 °F 39.2 °F 93% 30.18 in 7.0 mi North 3.5 mph - N/A   Mostly Cloudy
8:15 AM 41.0 °F 36.4 °F 39.2 °F 93% 30.16 in 7.0 mi NE 6.9 mph - N/A   Scattered Clouds
8:35 AM 41.0 °F 36.4 °F 39.2 °F 93% 30.17 in 7.0 mi NNE 6.9 mph - N/A Rain Light Rain
8:55 AM 41.0 °F 38.0 °F 39.2 °F 93% 30.20 in 5.0 mi NNE 4.6 mph - N/A Rain Rain
9:15 AM 41.0 °F 38.0 °F 39.2 °F 93% 30.20 in 7.0 mi NE 4.6 mph - N/A Rain Light Rain
9:35 AM 41.0 °F 38.0 °F 41.0 °F 100% 30.21 in 5.0 mi NNE 4.6 mph - N/A Rain Light Rain
9:55 AM 41.0 °F 37.1 °F 41.0 °F 100% 30.20 in 5.0 mi ENE 5.8 mph - N/A Rain Rain
10:15 AM 41.0 °F 37.1 °F 41.0 °F 100% 30.19 in 5.0 mi ENE 5.8 mph - N/A   Light Drizzle
10:35 AM 42.8 °F 41.1 °F 41.0 °F 93% 30.21 in 5.0 mi North 3.5 mph - N/A Rain Light Rain
10:55 AM 42.8 °F 40.1 °F 41.0 °F 93% 30.20 in 4.0 mi NNE 4.6 mph - N/A Rain Light Rain
11:15 AM 42.8 °F 41.1 °F 41.0 °F 93% 30.20 in 5.0 mi NE 3.5 mph - N/A Rain Light Rain
11:35 AM 42.8 °F - 42.8 °F 100% 30.18 in 4.0 mi Calm Calm - N/A   Overcast
11:55 AM 42.8 °F 40.1 °F 42.8 °F 100% 30.19 in 5.0 mi East 4.6 mph - N/A   Overcast
12:15 PM 44.6 °F 43.1 °F 42.8 °F 93% 30.20 in 5.0 mi NE 3.5 mph - N/A   Overcast
12:35 PM 44.6 °F 42.2 °F 42.8 °F 93% 30.16 in 4.0 mi East 4.6 mph - N/A   Overcast
12:55 PM 44.6 °F 43.1 °F 42.8 °F 93% 30.17 in 5.0 mi ENE 3.5 mph - N/A   Overcast
1:15 PM 44.6 °F 40.7 °F 44.6 °F 100% 30.15 in 5.0 mi NE 6.9 mph - N/A   Overcast
1:35 PM 44.6 °F 40.7 °F 44.6 °F 100% 30.16 in 4.0 mi North 6.9 mph - N/A   Drizzle
1:55 PM 44.6 °F 42.2 °F 44.6 °F 100% 30.15 in 4.0 mi NE 4.6 mph - N/A   Overcast
2:15 PM 44.6 °F 42.2 °F 44.6 °F 100% 30.16 in 4.0 mi NNE 4.6 mph - N/A   Overcast
2:35 PM 44.6 °F 41.4 °F 44.6 °F 100% 30.15 in 4.0 mi NE 5.8 mph - N/A   Overcast
2:55 PM 44.6 °F 41.4 °F 44.6 °F 100% 30.15 in 4.0 mi NNE 5.8 mph - N/A Rain Rain
3:15 PM 44.6 °F 40.7 °F 44.6 °F 100% 30.14 in 3.0 mi NE 6.9 mph - N/A   Light Drizzle
3:35 PM 44.6 °F 40.7 °F 44.6 °F 100% 30.15 in 3.0 mi NNE 6.9 mph - N/A   Light Drizzle
3:55 PM 46.4 °F 42.9 °F 46.4 °F 100% 30.15 in 4.0 mi North 6.9 mph - N/A Rain Light Rain
4:15 PM 46.4 °F 42.9 °F 44.6 °F 93% 30.15 in 4.0 mi NNE 6.9 mph - N/A   Overcast
4:35 PM 46.4 °F 42.9 °F 44.6 °F 93% 30.16 in 4.0 mi North 6.9 mph - N/A   Overcast
4:55 PM 46.4 °F 43.5 °F 44.6 °F 93% 30.16 in 3.0 mi North 5.8 mph - N/A Rain Light Rain
5:15 PM 46.4 °F 42.9 °F 44.6 °F 93% 30.15 in 4.0 mi NNE 6.9 mph - N/A   Overcast
5:35 PM 44.6 °F 40.7 °F 44.6 °F 100% 30.16 in 5.0 mi NNE 6.9 mph - N/A Rain Rain
5:55 PM 44.6 °F 41.4 °F 44.6 °F 100% 30.16 in 7.0 mi North 5.8 mph - N/A Rain Light Rain
6:15 PM 44.6 °F 39.7 °F 44.6 °F 100% 30.16 in 7.0 mi North 9.2 mph - N/A   Overcast
6:35 PM 44.6 °F 39.7 °F 44.6 °F 100% 30.18 in 2.0 mi NNE 9.2 mph - N/A Rain , Thunderstorm Heavy Thunderstorms and Rain
6:55 PM 44.6 °F 40.7 °F 44.6 °F 100% 30.19 in 7.0 mi NNE 6.9 mph - N/A Rain , Thunderstorm Light Thunderstorms and Rain
7:15 PM 44.6 °F 41.4 °F 44.6 °F 100% 30.20 in 10.0 mi North 5.8 mph - N/A Rain , Thunderstorm Light Thunderstorms and Rain
7:35 PM 44.6 °F 41.4 °F 44.6 °F 100% 30.21 in 7.0 mi North 5.8 mph - N/A Rain Rain
7:55 PM 44.6 °F 38.8 °F 44.6 °F 100% 30.20 in 5.0 mi NNE 11.5 mph - N/A   Drizzle
8:15 PM 44.6 °F 39.7 °F 44.6 °F 100% 30.21 in 5.0 mi North 9.2 mph - N/A   Drizzle
8:35 PM 44.6 °F 39.7 °F 44.6 °F 100% 30.22 in 4.0 mi NNE 9.2 mph - N/A   Light Drizzle
8:55 PM 44.6 °F 39.7 °F 44.6 °F 100% 30.23 in 4.0 mi NNE 9.2 mph - N/A   Light Drizzle
9:15 PM 44.6 °F 42.2 °F 44.6 °F 100% 30.23 in 4.0 mi NNE 4.6 mph - N/A   Drizzle
9:35 PM 44.6 °F 40.2 °F 44.6 °F 100% 30.23 in 4.0 mi NNE 8.1 mph - N/A   Drizzle
9:55 PM 44.6 °F 38.4 °F 44.6 °F 100% 30.22 in 5.0 mi NNE 12.7 mph 19.6 mph N/A   Light Drizzle
10:35 PM 44.6 °F 40.2 °F 44.6 °F 100% 30.23 in 7.0 mi ENE 8.1 mph - N/A   Overcast
10:55 PM 44.6 °F 39.2 °F 44.6 °F 100% 30.22 in 7.0 mi NE 10.4 mph - N/A   Overcast
11:15 PM 44.6 °F 39.7 °F 44.6 °F 100% 30.22 in 7.0 mi ENE 9.2 mph - N/A   Overcast
11:35 PM 44.6 °F 40.2 °F 44.6 °F 100% 30.22 in 7.0 mi ENE 8.1 mph - N/A   Overcast
11:55 PM 44.6 °F 39.7 °F 44.6 °F 100% 30.21 in 7.0 mi ENE 9.2 mph - N/A   Overcast